Location: Hylvaty SDH
(49.9612°N, 16.4057°E)
Time: 20:21:11
(UTC+01:00)

Vanguard 1 Rocket - Pass Details

Date: 06 October 2020
Orbit: 656 x 4221 km, 34.3° (Epoch: 30 October)

Event Time Altitude Azimuth Distance (km) Brightness Sun altitude
Rises 18:24:53 0° 244° (WSW) 4,572 12.7 -1.4°
Reaches altitude 10° 18:27:34 10° 237° (WSW) 3,937 11.9 -1.8°
Maximum altitude 18:37:46 42° 171° (S) 3,258 10.2 -3.5°
Drops below altitude 10° 18:55:54 10° 110° (ESE) 6,812 11.2 -6.4°
Enters shadow 18:59:42 - 107° (ESE) 7,626 11.5 -7.0°
Sets 19:02:27 0° 105° (ESE) 8,191 - -7.4°
